This is the latest recevied weather packets stored in our database for station/object IW3HBX-3. If no packets are shown the sender has not sent any weather packets the latest 1 day(s).
| Time | Temp. | Humidity | Pressure | Rain* | Wind** | Luminosity | Snow |
|---|---|---|---|---|---|---|---|
| 1778005797 | 13.89° C | 93% | 1013.8 hPa | 0 mm | 0 m/s | 0 W/m² | - |
| 1778005497 | 13.89° C | 93% | 1013.8 hPa | 0 mm | 0 m/s | 1 W/m² | - |
| 1778005197 | 13.89° C | 93% | 1013.7 hPa | 0 mm | 0.45 m/s, 68° | 2 W/m² | - |
| 1778004897 | 13.89° C | 93% | 1013.6 hPa | 0 mm | 0.45 m/s, 24° | 3 W/m² | - |
| 1778004597 | 13.89° C | 93% | 1013.7 hPa | 0 mm | 0 m/s | 3 W/m² | - |
| 1778004297 | 13.89° C | 93% | 1013.6 hPa | 0 mm | 0.89 m/s, 62° | 4 W/m² | - |
| 1778004034 | 13.89° C | 93% | 1013.6 hPa | 0 mm | 0.89 m/s, 64° | 4 W/m² | - |
| 1778003997 | 13.89° C | 93% | 1013.6 hPa | 0 mm | 0.89 m/s, 64° | 4 W/m² | - |
| 1778003697 | 13.89° C | 93% | 1013.6 hPa | 0 mm | 0.45 m/s, 68° | 5 W/m² | - |
| 1778003396 | 13.89° C | 93% | 1013.6 hPa | 0 mm | 0 m/s | 6 W/m² | - |
| 1778003096 | 13.89° C | 93% | 1013.7 hPa | 0 mm | 0 m/s | 5 W/m² | - |
| 1778002796 | 13.89° C | 93% | 1013.7 hPa | 0 mm | 0.89 m/s, 352° | 4 W/m² | - |
| 1778002496 | 13.89° C | 93% | 1013.8 hPa | 0 mm | 0.45 m/s, 69° | 5 W/m² | - |
| 1778002196 | 13.89° C | 93% | 1013.7 hPa | 0 mm | 0 m/s | 8 W/m² | - |
| 1778001896 | 13.89° C | 93% | 1013.6 hPa | 0 mm | 0.89 m/s, 66° | 14 W/m² | - |
| 1778001596 | 13.89° C | 93% | 1013.7 hPa | 0 mm | 0.89 m/s, 66° | 11 W/m² | - |
| 1778001296 | 13.89° C | 93% | 1013.6 hPa | 0 mm | 1.34 m/s, 67° | 8 W/m² | - |
| 1778000996 | 13.89° C | 93% | 1013.7 hPa | 0 mm | 1.34 m/s, 72° | 7 W/m² | - |
| 1778000696 | 13.89° C | 93% | 1013.7 hPa | 0 mm | 1.34 m/s, 73° | 9 W/m² | - |
| 1778000396 | 13.89° C | 94% | 1013.6 hPa | 0 mm | 1.34 m/s, 61° | 8 W/m² | - |
| 1778000096 | 13.89° C | 93% | 1013.6 hPa | 0 mm | 1.34 m/s, 74° | 10 W/m² | - |
| 1777999796 | 13.89° C | 93% | 1013.7 hPa | 0 mm | 1.79 m/s, 68° | 12 W/m² | - |
| 1777999495 | 13.89° C | 94% | 1013.7 hPa | 0 mm | 0.89 m/s, 35° | 19 W/m² | - |
| 1777999195 | 13.89° C | 94% | 1013.7 hPa | 0 mm | 1.34 m/s, 72° | 18 W/m² | - |
| 1777998895 | 13.89° C | 94% | 1013.8 hPa | 0 mm | 0.89 m/s, 73° | 14 W/m² | - |
* Rain latest hour (hover to see other rain measurements)
** Current wind speed in m/s (hover to see current wind gust speed)